Total_Precipitation_Accumulation
0.06 0.12 0.29 0.55 1.13 1.42 1.19 0.74 0.54 0.51 0.58 0.58 0.51 0.49 0.56 0.63 0.84 1.44 1.08 0.62 0.37 0.33 0.40 0.56 0.76 0.71 0.67 0.70 0.75 0.76 0.71 0.67 0.65 0.65 0.64 0.71 0.75 0.73 0.73 0.80 0.86 0.88 0.89 0.94 0.99 0.90 0.88 0.89 0.89
0.10 0.19 0.39 0.93 1.39 1.29 1.14 0.64 0.36 0.45 0.54 0.68 0.67 0.53 0.45 0.46 0.44 0.49 0.58 0.66 0.32 0.26 0.31 0.39 0.61 0.62 0.60 0.63 0.66 0.63 0.60 0.56 0.58 0.58 0.62 0.70 0.75 0.80 0.82 0.90 0.95 0.96 0.99 1.02 0.97 0.90 0.87 0.87 0.95
0.14 0.26 0.46 0.92 0.96 0.85 0.86 0.52 0.38 0.33 0.50 0.74 0.72 0.48 0.47 0.52 0.43 0.40 0.45 0.49 0.33 0.29 0.25 0.33 0.52 0.53 0.54 0.55 0.54 0.54 0.58 0.54 0.54 0.57 0.61 0.69 0.79 0.90 0.96 1.05 1.10 1.11 1.12 1.06 0.98 0.91 0.87 0.86 0.90
0.16 0.32 0.55 0.61 0.41 0.32 0.40 0.45 0.47 0.45 0.63 0.76 0.62 0.52 0.53 0.53 0.46 0.37 0.35 0.43 0.30 0.30 0.26 0.32 0.47 0.45 0.43 0.44 0.45 0.48 0.52 0.54 0.54 0.58 0.60 0.69 0.77 0.85 0.97 1.05 1.11 1.16 1.11 0.99 0.94 0.98 0.90 0.89 0.95
0.14 0.31 0.57 0.45 0.27 0.21 0.22 0.28 0.36 0.53 0.70 0.82 0.69 0.66 0.74 0.58 0.46 0.38 0.34 0.46 0.42 0.35 0.33 0.37 0.48 0.47 0.44 0.44 0.46 0.46 0.48 0.50 0.50 0.53 0.54 0.67 0.73 0.77 0.89 0.98 1.01 0.99 0.99 0.98 1.00 1.05 1.02 1.02 1.01
0.13 0.25 0.43 0.30 0.19 0.16 0.20 0.25 0.39 0.58 0.61 0.69 0.79 0.86 0.88 0.67 0.57 0.48 0.45 0.57 0.59 0.49 0.39 0.48 0.54 0.57 0.55 0.50 0.51 0.52 0.53 0.49 0.48 0.53 0.55 0.65 0.74 0.81 0.89 0.94 0.89 0.82 0.80 0.88 0.98 1.07 1.10 1.03 0.97
0.16 0.20 0.23 0.19 0.13 0.15 0.22 0.32 0.36 0.49 0.57 0.77 0.82 0.85 0.94 0.89 0.74 0.60 0.71 0.94 0.91 0.75 0.56 0.59 0.59 0.56 0.59 0.62 0.61 0.60 0.59 0.58 0.56 0.58 0.60 0.66 0.75 0.77 0.84 0.97 0.90 0.79 0.78 0.86 0.98 1.01 1.11 0.98 0.91
0.10 0.16 0.19 0.16 0.09 0.13 0.19 0.26 0.37 0.50 0.62 0.69 0.79 0.91 0.93 0.84 0.75 0.80 1.01 1.38 1.51 1.35 1.04 0.73 0.67 0.72 0.67 0.63 0.69 0.71 0.61 0.59 0.63 0.67 0.72 0.80 0.87 0.88 0.90 0.93 1.02 0.92 0.92 0.96 1.04 1.01 0.97 0.97 0.99
0.05 0.12 0.16 0.12 0.11 0.13 0.20 0.26 0.32 0.38 0.48 0.70 0.88 1.02 0.92 0.73 0.76 0.98 1.20 1.52 1.71 1.52 1.33 1.14 1.02 0.91 0.87 0.80 0.69 0.85 0.76 0.73 0.81 0.98 1.04 1.20 1.35 1.20 1.18 1.08 1.21 1.17 1.18 1.29 1.39 1.31 1.23 1.20 1.19
0.03 0.07 0.08 0.06 0.05 0.06 0.12 0.22 0.29 0.43 0.74 1.17 1.40 1.26 1.01 0.86 0.98 1.23 1.40 1.42 1.50 1.53 1.48 1.52 1.33 1.20 1.20 1.10 1.20 1.45 1.30 1.25 1.38 1.55 1.57 1.88 2.02 1.80 1.33 1.37 1.66 1.66 1.74 1.84 1.97 2.08 1.81 1.56 1.34
0.01 0.04 0.04 0.03 0.03 0.03 0.07 0.15 0.27 0.45 0.96 1.45 1.65 1.35 1.14 1.09 1.19 1.34 1.65 1.75 1.83 1.82 1.66 1.73 1.65 1.54 1.58 1.70 1.68 1.79 1.88 1.93 2.06 2.10 2.16 2.37 2.17 1.80 1.60 1.77 2.09 2.11 2.10 2.10 2.31 2.45 2.04 2.03 2.07
0.01 0.01 0.01 0.01 0.02 0.02 0.05 0.15 0.35 0.60 1.00 1.28 1.21 1.07 1.06 1.26 1.45 1.63 1.89 2.19 2.29 2.33 2.21 1.99 1.94 2.12 2.11 2.03 1.97 1.82 1.64 1.66 1.88 2.03 1.98 2.36 2.56 2.43 2.39 2.44 2.28 2.39 2.56 2.83 2.71 2.70 2.50 2.50 2.33
0.00 0.01 0.01 0.01 0.02 0.04 0.08 0.17 0.37 0.69 0.90 0.96 0.84 0.88 1.14 1.42 1.68 2.12 2.53 2.61 2.58 2.78 2.92 2.72 2.65 2.60 2.42 2.43 2.08 1.79 1.71 1.60 1.52 1.75 1.92 2.16 2.49 2.58 2.63 2.37 2.26 2.12 2.30 2.52 2.54 2.34 2.45 2.59 2.55
0.00 0.01 0.01 0.02 0.03 0.06 0.15 0.24 0.37 0.61 0.69 0.70 0.77 1.01 1.22 1.61 1.91 2.43 2.92 2.98 3.07 3.32 3.49 3.39 3.36 3.15 2.84 2.58 2.39 2.24 1.96 1.89 1.60 1.65 1.67 2.02 2.40 2.45 2.31 2.31 2.34 2.20 2.31 2.32 2.32 2.37 2.57 2.71 2.77
0.00 0.02 0.08 0.08 0.06 0.08 0.17 0.39 0.47 0.65 0.74 0.69 0.87 1.04 1.42 1.87 2.13 2.45 2.70 3.09 3.50 3.87 3.92 3.86 3.87 3.74 3.66 3.32 2.92 2.52 2.36 2.08 1.98 1.90 1.73 1.96 2.25 2.40 2.39 2.31 2.17 2.18 2.24 2.34 2.40 2.43 2.56 2.47 2.50
0.02 0.07 0.19 0.18 0.12 0.12 0.17 0.55 0.78 0.75 0.72 0.76 0.93 1.27 1.54 1.84 2.24 2.46 2.78 3.13 3.53 4.03 4.40 4.45 3.97 3.91 3.92 3.80 3.48 3.06 2.95 2.77 2.56 2.19 1.96 1.91 2.08 2.16 2.26 2.09 2.05 2.13 2.00 2.01 2.17 2.14 2.19 2.26 2.37
0.06 0.12 0.19 0.27 0.17 0.14 0.26 0.76 1.10 0.83 0.67 0.81 1.08 1.40 1.76 1.99 2.40 2.52 2.70 2.98 3.43 4.30 5.18 5.16 4.62 4.20 3.91 3.84 3.84 3.70 3.50 3.09 2.66 2.36 2.18 2.02 1.88 1.73 1.79 1.76 1.84 1.83 1.80 1.82 1.66 1.97 2.08 2.17 2.21
0.07 0.12 0.24 0.36 0.22 0.21 0.32 0.71 0.78 0.69 0.86 0.88 0.92 1.16 1.49 1.62 1.91 2.18 2.47 3.00 3.80 4.98 5.75 5.64 5.00 4.53 4.19 3.99 3.80 3.73 3.40 3.08 2.64 2.42 2.23 1.97 1.90 1.63 1.58 1.55 1.64 1.58 1.64 1.76 1.82 1.98 1.97 1.90 1.90
0.05 0.11 0.23 0.27 0.21 0.29 0.38 0.61 0.71 0.82 1.02 1.02 0.88 0.93 1.23 1.43 1.72 2.18 2.73 3.57 4.65 5.55 5.82 5.30 4.79 4.45 4.02 3.60 3.02 2.65 2.59 2.48 2.19 1.91 1.65 1.54 1.47 1.54 1.60 1.44 1.55 1.45 1.48 1.50 1.53 1.65 1.66 1.61 1.67
0.07 0.10 0.21 0.27 0.19 0.22 0.38 0.71 1.02 1.00 0.93 0.89 0.95 0.95 1.06 1.43 1.88 2.60 3.63 4.21 4.45 4.57 4.34 3.99 3.73 3.51 3.06 2.68 2.44 2.19 2.15 1.96 1.77 1.67 1.63 1.37 1.29 1.34 1.30 1.40 1.38 1.34 1.47 1.50 1.48 1.54 1.53 1.43 1.47
0.11 0.13 0.20 0.26 0.17 0.18 0.39 0.89 1.18 1.17 0.95 0.82 0.86 0.86 1.04 1.47 2.06 2.86 3.43 3.56 3.28 2.96 2.86 2.81 2.88 2.63 2.50 2.44 2.33 2.21 2.18 1.96 1.70 1.57 1.52 1.31 1.14 1.16 1.21 1.22 1.23 1.33 1.32 1.45 1.47 1.36 1.41 1.44 1.40
0.09 0.08 0.07 0.10 0.16 0.35 0.54 1.12 1.32 1.09 1.07 0.89 0.88 0.90 0.95 1.23 1.58 2.00 2.24 2.14 2.26 2.39 2.41 2.53 2.62 2.36 2.33 2.27 1.98 1.87 1.77 1.66 1.50 1.44 1.43 1.50 1.26 1.11 1.07 1.09 1.10 1.19 1.18 1.38 1.23 1.28 1.43 1.47 1.34
0.05 0.04 0.05 0.12 0.23 0.43 0.63 0.90 1.07 0.90 1.09 0.88 0.74 0.74 0.72 0.89 0.97 1.08 1.21 1.37 1.58 1.69 1.86 2.16 2.41 2.33 2.17 2.00 1.93 1.97 1.84 1.77 1.73 1.74 1.68 1.64 1.50 1.27 1.13 1.15 1.15 1.19 1.15 1.19 1.18 1.41 1.39 1.33 1.27
0.04 0.06 0.13 0.24 0.41 0.90 0.86 0.85 1.09 1.03 1.09 0.85 0.67 0.58 0.64 0.75 0.83 0.87 0.93 1.06 1.24 1.36 1.53 1.78 2.09 2.22 2.15 1.98 1.90 1.91 1.94 1.87 1.76 1.74 1.69 1.52 1.42 1.35 1.22 1.20 1.20 1.15 1.13 1.10 1.08 1.26 1.29 1.34 1.36
0.06 0.08 0.24 0.59 0.99 1.16 0.74 0.82 1.08 0.84 0.77 0.64 0.42 0.41 0.53 0.72 0.86 0.93 0.89 0.85 0.91 1.06 1.21 1.31 1.49 1.75 1.87 1.84 1.81 1.82 1.91 1.80 1.60 1.50 1.40 1.35 1.18 1.10 1.11 1.12 1.14 1.03 1.06 1.15 1.25 1.25 1.25 1.31 1.32
0.05 0.04 0.11 0.23 0.35 0.54 0.72 1.10 1.21 0.86 0.58 0.35 0.27 0.36 0.53 0.68 0.73 0.77 0.76 0.72 0.70 0.77 0.95 1.08 1.26 1.44 1.64 1.66 1.63 1.63 1.69 1.61 1.49 1.46 1.25 1.18 1.13 1.07 1.10 1.12 1.08 1.06 1.09 1.11 1.30 1.20 1.17 1.21 1.19
0.05 0.04 0.04 0.08 0.13 0.34 0.71 1.02 0.97 0.76 0.57 0.40 0.33 0.35 0.45 0.50 0.53 0.64 0.70 0.77 0.75 0.71 0.82 0.94 1.15 1.33 1.51 1.62 1.65 1.58 1.57 1.56 1.54 1.48 1.30 1.15 1.23 1.16 1.22 1.20 1.17 1.18 1.25 1.33 1.41 1.29 1.27 1.32 1.18
0.05 0.05 0.04 0.05 0.12 0.26 0.55 0.96 1.15 0.94 0.70 0.51 0.43 0.43 0.50 0.51 0.52 0.72 0.85 0.82 0.68 0.57 0.63 0.78 0.95 1.19 1.34 1.50 1.52 1.41 1.58 1.55 1.55 1.48 1.36 1.22 1.22 1.21 1.28 1.27 1.22 1.27 1.32 1.41 1.46 1.34 1.37 1.35 1.28
0.07 0.07 0.06 0.05 0.08 0.15 0.38 0.61 0.59 0.55 0.47 0.43 0.49 0.47 0.38 0.44 0.55 0.72 0.91 0.86 0.64 0.51 0.52 0.62 0.81 0.99 1.09 1.19 1.29 1.29 1.36 1.35 1.37 1.40 1.39 1.35 1.33 1.29 1.29 1.28 1.27 1.25 1.31 1.37 1.42 1.35 1.34 1.30 1.32
0.09 0.09 0.09 0.08 0.08 0.09 0.18 0.37 0.32 0.36 0.38 0.39 0.50 0.56 0.50 0.51 0.59 0.56 0.65 0.78 0.70 0.61 0.51 0.58 0.74 0.87 0.91 0.97 0.99 1.05 1.14 1.19 1.19 1.19 1.28 1.35 1.31 1.25 1.30 1.33 1.27 1.17 1.23 1.35 1.37 1.30 1.34 1.36 1.32